SIRIUS FM-5

Last updated on Oct. 30, 2020, 5:57 a.m. UTC

1 35493U 09034A   20303.55611240 -.00000200  00000-0  00000+0 0  9994
2 35493   0.0208 285.8987 0000289 189.7654  36.7583  1.00270852 41352
UTC
Height (km)
Latitude
Longitude
Inclination
Orbital Period
UTC large
Height (km)
Speed (km/s)
/
Latitude / Longitude
Inclination (degrees)
Orbital Period (minutes)
Azimuth
Elevation
Range (km)
Doppler Factor
iOS Compass Heading
iOS Angle

Next 30 passes for location: Hong Kong

Rise time Rise Azimuth (degrees) Set time Set Azimuth (degrees) Duration Max altitude (degrees)

No matching passes for this satellites